PROGRESS-MS 25

Last updated on Wed May 29 2024 00:02:07 GMT+0000 (Coordinated Universal Time)

1 58460U 23184A 24148.89682416 .00017197 00000+0 30271-3 0 9994 2 58460 51.6382 55.8848 0005804 242.0291 118.0111 15.50540905 27416
UTC large
Height (km)
Speed (km/s)
/
Latitude / Longitude
Inclination (degrees)
Orbital Period (minutes)
Azimuth
Elevation
Range (km)
Doppler Factor

Next 0 passes for location: London (51.5072 / 0.1276)

Sorry there are no passes over London.